Kake, AK

6:30 PM AKST on February 09, 2016 (GMT -0900)
Kake

Weather History for PAFE - January, 2013

Change the Weather History Date:

Tuesday, January 22, 2013

  Actual Average Record
Temperature  
Mean Temperature 38 °F -  
Max Temperature 44 °F 33 °F 48 °F (2015)
Min Temperature 33 °F 27 °F 15 °F (1999)
Degree Days  
Heating Degree Days 26    
Moisture  
Dew Point 34 °F    
Average Humidity 85    
Maximum Humidity 93    
Minimum Humidity 71    
Precipitation  
Precipitation 0.32 in - - ()
Sea Level Pressure  
Sea Level Pressure 29.74 in    
Wind  
Wind Speed 4 mph (ESE)    
Max Wind Speed 10 mph    
Max Gust Speed 17 mph    
Visibility 9 miles    
Events      
Averages and records for this station are not official NWS values.
T = Trace of Precipitation, MM = Missing Value Source: NWS Daily Summary

Daily Weather History Graph

Daily Weather History Graph

Search for Another Location

Airport or City:

Trip Planner

Search our weather history database for the weather conditions in past years. The results will help you decide how hot, cold, wet, or windy it might be!

Date:

Astronomy

Jan. 22, 2013 Rise Set
Actual Time 8:11 AM AKST 4:03 PM AKST
Civil Twilight 7:27 AM AKST 4:48 PM AKST
Nautical Twilight 6:39 AM AKST 5:35 PM AKST
Astronomical Twilight 5:54 AM AKST 6:20 PM AKST
Moon 12:21 PM AKST (1/22) 4:49 AM AKST (1/22)
Length of Visible Light 9h 20m
Length of Day
7h 51m
Waxing Gibbous, 84% of the Moon is Illuminated
Jan 22
Waxing Gibbous
Jan 26
Full
Feb 3
Last Quarter
Feb 9
New
Feb 17
First Quarter

Hourly Weather History & Observations

Time (AKST) Temp. Windchill Dew Point Humidity Pressure Visibility Wind Dir Wind Speed Gust Speed Precip Events Conditions
12:16 AM 37.4 °F - 33.8 °F 87% 29.87 in 10.0 mi Calm Calm - N/A   Clear
12:36 AM 35.6 °F - 33.8 °F 93% 29.87 in 10.0 mi Calm Calm - N/A   Clear
12:56 AM 35.6 °F 31.7 °F 32.0 °F 87% 29.87 in 10.0 mi East 4.6 mph - N/A   Partly Cloudy
1:16 AM 35.6 °F 32.8 °F 32.0 °F 87% 29.87 in 10.0 mi ESE 3.5 mph - N/A   Scattered Clouds
1:36 AM 35.6 °F 32.8 °F 33.8 °F 93% 29.85 in 10.0 mi ESE 3.5 mph - N/A   Partly Cloudy
1:56 AM 35.6 °F 32.8 °F 33.8 °F 93% 29.85 in 10.0 mi SE 3.5 mph - N/A   Clear
2:16 AM 37.4 °F - 33.8 °F 87% 29.84 in 10.0 mi Calm Calm - N/A   Scattered Clouds
2:36 AM 35.6 °F - 32.0 °F 87% 29.84 in 3.0 mi Calm Calm - N/A   Overcast
2:56 AM 35.6 °F - 32.0 °F 87% 29.83 in 0.5 mi Calm Calm - N/A   Overcast
3:16 AM 33.8 °F 29.6 °F 32.0 °F 93% 29.84 in 1.0 mi East 4.6 mph - N/A   Overcast
3:36 AM 33.8 °F 29.6 °F 32.0 °F 93% 29.82 in 0.5 mi East 4.6 mph - N/A   Overcast
3:56 AM 33.8 °F 30.8 °F 32.0 °F 93% 29.81 in 10.0 mi East 3.5 mph - N/A   Mostly Cloudy
4:16 AM 35.6 °F - 33.8 °F 93% 29.80 in 10.0 mi Calm Calm - N/A   Clear
4:36 AM 35.6 °F - 32.0 °F 87% 29.79 in 10.0 mi Calm Calm - N/A   Clear
4:56 AM 35.6 °F 30.7 °F 33.8 °F 93% 29.78 in 10.0 mi East 5.8 mph - N/A   Clear
5:16 AM 35.6 °F - 33.8 °F 93% 29.78 in 10.0 mi Calm Calm - N/A   Clear
5:36 AM 35.6 °F - 32.0 °F 87% 29.79 in 10.0 mi Calm Calm - N/A   Clear
5:56 AM 35.6 °F - 32.0 °F 87% 29.79 in 10.0 mi Calm Calm - N/A   Clear
6:16 AM 33.8 °F - 32.0 °F 93% 29.79 in 10.0 mi Calm Calm - N/A   Clear
6:56 AM 35.6 °F 30.7 °F 32.0 °F 87% 29.78 in 10.0 mi East 5.8 mph - N/A   Clear
7:16 AM 35.6 °F 31.7 °F 32.0 °F 87% 29.78 in 10.0 mi East 4.6 mph - N/A   Clear
7:36 AM 35.6 °F 29.2 °F 32.0 °F 87% 29.77 in 10.0 mi East 8.1 mph - N/A   Scattered Clouds
7:56 AM 35.6 °F - 32.0 °F 87% 29.78 in 10.0 mi Calm Calm - N/A   Overcast
8:16 AM 37.4 °F 31.4 °F 33.8 °F 87% 29.78 in 10.0 mi East 8.1 mph - N/A   Overcast
8:36 AM 37.4 °F 31.4 °F 30.2 °F 75% 29.77 in 10.0 mi East 8.1 mph - N/A   Overcast
8:56 AM 37.4 °F 31.4 °F 32.0 °F 81% 29.77 in 10.0 mi East 8.1 mph - N/A   Overcast
9:16 AM 37.4 °F 34.9 °F 30.2 °F 75% 29.77 in 10.0 mi East 3.5 mph - N/A   Mostly Cloudy
9:36 AM 39.2 °F - 32.0 °F 75% 29.77 in 10.0 mi Calm Calm - N/A   Overcast
9:56 AM 39.2 °F 37.0 °F 32.0 °F 75% 29.78 in 10.0 mi ESE 3.5 mph - N/A   Overcast
10:16 AM 37.4 °F 34.9 °F 32.0 °F 81% 29.78 in 10.0 mi ESE 3.5 mph - N/A   Overcast
10:36 AM 39.2 °F 35.9 °F 33.8 °F 81% 29.78 in 8.0 mi East 4.6 mph - N/A   Overcast
10:56 AM 39.2 °F 34.2 °F 35.6 °F 87% 29.77 in 8.0 mi East 6.9 mph - 0.01 in   Overcast
11:16 AM 41.0 °F 35.2 °F 35.6 °F 81% 29.76 in 10.0 mi East 9.2 mph - N/A   Overcast
11:36 AM 41.0 °F 35.2 °F 35.6 °F 81% 29.75 in 10.0 mi East 9.2 mph - N/A   Overcast
11:56 AM 41.0 °F 35.2 °F 35.6 °F 81% 29.74 in 10.0 mi East 9.2 mph 16.1 mph N/A   Overcast
12:16 PM 42.8 °F 40.1 °F 35.6 °F 76% 29.73 in 10.0 mi East 4.6 mph - N/A   Overcast
12:36 PM 44.6 °F 39.7 °F 35.6 °F 71% 29.74 in 10.0 mi ESE 9.2 mph - N/A   Overcast
12:56 PM 42.8 °F 38.6 °F 35.6 °F 76% 29.73 in 10.0 mi ESE 6.9 mph - N/A   Overcast
1:16 PM 42.8 °F 40.1 °F 37.4 °F 81% 29.72 in 10.0 mi East 4.6 mph - N/A   Overcast
1:36 PM 42.8 °F - 35.6 °F 76% 29.72 in 10.0 mi Calm Calm - N/A   Overcast
1:56 PM 42.8 °F 38.6 °F 37.4 °F 81% 29.71 in 9.0 mi ESE 6.9 mph - 0.01 in   Overcast
2:16 PM 42.8 °F 38.6 °F 37.4 °F 81% 29.71 in 8.0 mi SE 6.9 mph - 0.01 in   Overcast
2:36 PM 42.8 °F 38.6 °F 37.4 °F 81% 29.71 in 8.0 mi SE 6.9 mph - 0.03 in   Overcast
2:56 PM 41.0 °F 36.4 °F 37.4 °F 87% 29.71 in 8.0 mi ESE 6.9 mph - 0.04 in   Overcast
3:16 PM 41.0 °F 37.1 °F 37.4 °F 87% 29.71 in 8.0 mi ESE 5.8 mph - 0.02 in   Overcast
3:36 PM 41.0 °F 38.0 °F 37.4 °F 87% 29.70 in 8.0 mi East 4.6 mph - 0.04 in   Overcast
3:56 PM 41.0 °F - 35.6 °F 81% 29.70 in 7.0 mi Calm Calm - 0.06 in   Overcast
4:16 PM 41.0 °F 38.0 °F 35.6 °F 81% 29.69 in 10.0 mi ESE 4.6 mph - 0.01 in   Overcast
4:36 PM 41.0 °F 35.8 °F 37.4 °F 87% 29.70 in 10.0 mi ESE 8.1 mph - 0.02 in   Overcast
4:56 PM 41.0 °F 35.8 °F 35.6 °F 81% 29.69 in 10.0 mi ESE 8.1 mph - 0.04 in   Overcast
5:16 PM 41.0 °F 37.1 °F 35.6 °F 81% 29.69 in 10.0 mi ESE 5.8 mph - 0.01 in   Overcast
5:36 PM 41.0 °F 36.4 °F 35.6 °F 81% 29.68 in 10.0 mi ESE 6.9 mph - 0.02 in   Overcast
5:56 PM 41.0 °F 35.2 °F 35.6 °F 81% 29.68 in 10.0 mi East 9.2 mph - 0.02 in   Overcast
6:16 PM 41.0 °F 35.8 °F 35.6 °F 81% 29.68 in 10.0 mi East 8.1 mph - 0.01 in   Overcast
6:36 PM 39.2 °F 32.5 °F 35.6 °F 87% 29.67 in 10.0 mi East 10.4 mph 17.3 mph 0.02 in   Overcast
6:56 PM 39.2 °F 33.0 °F 35.6 °F 87% 29.68 in 10.0 mi East 9.2 mph - 0.02 in   Overcast
7:16 PM 39.2 °F 33.0 °F 35.6 °F 87% 29.67 in 10.0 mi East 9.2 mph 16.1 mph 0.01 in   Overcast
7:36 PM 39.2 °F 33.6 °F 35.6 °F 87% 29.67 in 10.0 mi ESE 8.1 mph - 0.02 in   Overcast
7:56 PM 39.2 °F 33.6 °F 35.6 °F 87% 29.67 in 10.0 mi ESE 8.1 mph - 0.02 in   Overcast
8:16 PM 39.2 °F 32.5 °F 35.6 °F 87% 29.67 in 10.0 mi ESE 10.4 mph - 0.01 in   Overcast
8:36 PM 39.2 °F 33.6 °F 35.6 °F 87% 29.67 in 10.0 mi ESE 8.1 mph - 0.02 in   Overcast
8:56 PM 39.2 °F 33.6 °F 35.6 °F 87% 29.67 in 10.0 mi ESE 8.1 mph - 0.03 in   Overcast
9:16 PM 39.2 °F 33.6 °F 35.6 °F 87% 29.66 in 10.0 mi East 8.1 mph - 0.01 in   Overcast
9:36 PM 39.2 °F 33.6 °F 35.6 °F 87% 29.66 in 7.0 mi East 8.1 mph - 0.02 in   Overcast
9:56 PM 39.2 °F 33.6 °F 35.6 °F 87% 29.66 in 10.0 mi ESE 8.1 mph - 0.04 in   Overcast
10:16 PM 39.2 °F 33.6 °F 35.6 °F 87% 29.66 in 10.0 mi ESE 8.1 mph - N/A   Overcast
10:36 PM 39.2 °F 33.0 °F 35.6 °F 87% 29.66 in 10.0 mi ESE 9.2 mph - 0.01 in   Overcast
10:56 PM 39.2 °F 33.6 °F 35.6 °F 87% 29.65 in 10.0 mi ESE 8.1 mph - 0.01 in   Overcast
11:16 PM 39.2 °F 34.2 °F 35.6 °F 87% 29.65 in 10.0 mi ESE 6.9 mph - 0.01 in   Mostly Cloudy
11:36 PM 39.2 °F 33.6 °F 35.6 °F 87% 29.65 in 10.0 mi ESE 8.1 mph - 0.01 in   Overcast
11:56 PM 39.2 °F 33.6 °F 35.6 °F 87% 29.65 in 10.0 mi East 8.1 mph - 0.02 in   Overcast